Location: Unspecified
(49.9820°N, 20.4363°E)
Time: 14:53:36
(UTC+02:00)

ISS - Pass Details

Date: 26 May 2018
Orbit: 402 x 407 km, 51.6° (Epoch: 22 May)

Event Time Altitude Azimuth Distance (km) Brightness Sun altitude
Rises 01:13:29 0° 287° (WNW) 2,322 0.1 -18.4°
Reaches altitude 10° 01:15:36 10° 282° (WNW) 1,459 -1.0 -18.4°
Enters shadow 01:17:08 24° 269° (W) 886 -2.2 -18.3°
